Regional Weather Roundup
Issued by NWS

Home | Current Version | Previous Version | Text Only | Print | Product List | Glossary On
Versions: 1 2 3 4 5 6 7 8 9 10 11 12 13 14 15 16 17 18 19 20 21 22 23 24 25 26 27 28 29 30 31 32 33 34 35 36 37 38 39 40 41 42 43 44 45 46 47 48 49 50
000
ASUS43 KMPX 221201
RWRMN
WEATHER ROUNDUP FOR MINNESOTA
NATIONAL WEATHER SERVICE TWIN CITIES/CHANHASSEN MN
700 AM CDT FRI JUL 22 2016


NOTE: "FAIR" INDICATES FEW OR NO CLOUDS BELOW 12,000 FEET WITH NO
SIGNIFICANT WEATHER AND/OR OBSTRUCTIONS TO VISIBILITY. N/A MEANS
CURRENT SKY AND/OR WEATHER CONDITIONS ARE NOT AVAILABLE.

MNZ060>063-068>070-221300-
   Twin Cities Metro

CITY           SKY/WX    TMP DP  RH WIND       PRES   REMARKS
TWIN CITIES    MOSUNNY   76  67  73 E7        29.99R
6HR MIN TEMP:  74; 6HR MAX TEMP:  81;

ST PAUL        SUNNY     73  67  81 CALM      29.99R
CRYSTAL        SUNNY     71  67  87 CALM      29.97S
BLAINE         MOSUNNY   70  70 100 CALM      29.99R
LAKEVILLE      SUNNY     70  70 100 CALM      30.00R FOG
EDEN PRAIRIE   SUNNY     76  69  79 E3        29.98S
6HR MIN TEMP:  72; 6HR MAX TEMP:  78;

LAKEVILLE      SUNNY     70  70 100 CALM      30.00R FOG
SOUTH ST PAUL  SUNNY     73  67  83 S3        29.99R
LAKE ELMO      FAIR      68  68 100 CALM      30.01R
$$
MNZ001>005-007-008-013>017-022>024-027-028-221300-
   Northwest Minnesota

CITY           SKY/WX    TMP DP  RH WIND       PRES   REMARKS
HALLOCK        CLEAR     63  61  94 CALM      29.97S
ROSEAU         SUNNY     66  61  82 SW6       29.98R
WARROAD        SUNNY     66  63  88 SW7       29.98R
THIEF RVR FALL CLEAR     70  64  81 SW7       30.01R
CROOKSTON      CLEAR     70  66  88 SW6       30.01R
FOSSTON        PTCLDY    66  66 100 S6        30.03R
DETROIT LAKES  PTCLDY    68  66  94 CALM      30.05R
MOORHEAD       PTCLDY    68  66  94 N5        30.02R
PARK RAPIDS    SUNNY     67  63  87 CALM      30.04R
MAHNOMEN       FAIR      67  65  93 S3        30.03R
$$
MNZ006-009>011-018-025>026-221300-
   North Central Minnesota

CITY           SKY/WX    TMP DP  RH WIND       PRES   REMARKS
BAUDETTE       SUNNY     67  61  81 W7        29.97R
FLAG ISLAND    SUNNY     68  61  77 W8        29.94R
INTL FALLS     SUNNY     67  62  84 W7        29.96R
6HR MIN TEMP:  58; 6HR MAX TEMP:  67;

WASKISH        SUNNY     72  66  83 W9G16     29.99R
BIG FORK       SUNNY     63  61  94 CALM      30.00S
GRAND RAPIDS   SUNNY     64  63  96 CALM      30.03R
ORR            SUNNY     61  57  88 CALM      29.97R
COOK           SUNNY     64  61  88 W5        29.99S
WALKER         FAIR      65  63  94 W3        30.02S
$$
MNZ012-019>021-037-221300-
   Northeast Minnesota

CITY           SKY/WX    TMP DP  RH WIND       PRES   REMARKS
DULUTH         MOSUNNY   68  63  84 W5        30.01R
6HR MIN TEMP:  62; 6HR MAX TEMP:  69;

ELY            SUNNY     63  59  88 SW6       29.98S
HIBBING        SUNNY     57  57 100 CALM      30.00S
EVELETH        SUNNY     63  61  94 CALM      30.01S
DULUTH HARBOR  SUNNY     66  63  88 SW7       29.98S
TWO HARBORS    SUNNY     70  64  83 W3        29.97S
SILVER BAY     SUNNY     61  57  88 CALM      29.96S
GRAND MARAIS     N/A     63  57  81 W6        29.91S
G MARAIS ARPRT SUNNY     66  55  68 W5        29.98S
$$
MNZ029>031-032-039>041-046>048-054>057-064-221300-
   West Central Minnesota

CITY           SKY/WX    TMP DP  RH WIND       PRES   REMARKS
FERGUS FALLS   CLEAR     72  64  78 E5        30.03R
WHEATON        PTCLDY    66  66 100 CALM      30.03R
MORRIS         CLEAR     68  66  94 E3        30.01R
ALEXANDRIA     PTCLDY    68  66  93 CALM      30.05R
ELBOW LAKE     FAIR      71  64  80 SE5       30.03R
WADENA         CLEAR     63  61  94 CALM      30.03R
GLENWOOD       CLEAR     66  64  94 CALM      30.04R
APPLETON       CLEAR     70  66  88 NE3       30.01R
BENSON         CLEAR     64  63  94 CALM      30.01S
ORTONVILLE     DRZL/FOG  72  70  94 NE3       30.01R VSB<1/4
MADISON        CLEAR     70  68  94 CALM      30.01R FOG
WILLMAR        FAIR      73  72  94 NE5       30.03R
$$
MNZ033>034-036-042>043-049>051-058-059-221300-
   Central Minnesota

CITY           SKY/WX    TMP DP  RH WIND       PRES   REMARKS
ST CLOUD       SUNNY     66  66 100 CALM      30.01R
6HR MIN TEMP:  64; 6HR MAX TEMP:  70;

SAUK CENTRE    FAIR      64  64  98 CALM      30.03S
PAYNESVILLE    PTCLDY    67  66  96 CALM      30.03R
AITKIN         SUNNY     63  59  88 CALM      30.00F
BRAINERD       SUNNY     65  64  97 CALM      30.02S
STAPLES        SUNNY     64  63  94 CALM      30.04R
LONG PRAIRIE   FAIR      63  61  94 CALM      30.04R
LITTLE FALLS   SUNNY     61  61 100 CALM      30.03R
LITCHFIELD     CLEAR     72  72 100 N3        30.03R
BUFFALO        SUNNY     72  65  79 N3        30.02R
MAPLE LAKE     SUNNY     71  68  92 N5        30.03R
HUTCHINSON     CLEAR     71  70  96 N8        30.01R
$$
MNZ037-044-045-052-053-221300-
   East Central Minnesota

CITY           SKY/WX    TMP DP  RH WIND       PRES   REMARKS
PRINCETON      SUNNY     66  66 100 CALM      30.02R
MORA           SUNNY     63  63 100 CALM      30.02R
CAMBRIDGE      SUNNY     66  61  82 W1        30.00R
RUSH CITY      SUNNY     64  63  95 CALM      30.01R
MOOSE LAKE     SUNNY     61  59  94 CALM      29.99F
HINCKLEY       FAIR      66  63  88 CALM      30.00S
CLOQUET        SUNNY     66  61  82 CALM      30.01S
MCGREGOR       SUNNY     64  63  94 CALM      30.02S
$$
MNZ071>073-080-081-089-090-097-098-221300-
   Southwest Minnesota

CITY           SKY/WX    TMP DP  RH WIND       PRES   REMARKS
MONTEVIDEO     CLEAR     70  70 100 CALM      30.02R
GRANITE FALLS  MOCLDY    73  70  88 N5        30.02R
CANBY          CLEAR     73  70  91 CALM      30.02R
MARSHALL       CLEAR     74  71  91 S7        29.97S
REDWOOD FALLS  CLEAR     73  68  84 SE8       29.96S
OLIVIA         CLEAR     73  68  83 N7        30.00R
PIPESTONE      CLEAR     75  72  88 SE6       29.99F
WINDOM         CLEAR     75  73  94 CALM      29.99S
WORTHINGTON    CLEAR     75  74  96 NE5       30.00S
JACKSON        CLOUDY    77  73  88 NE5       30.00S FOG
TRACY          CLEAR     75  73  95 S7        29.98S
SLAYTON        CLEAR     74  72  92 E6        30.00F
$$
MNZ065>067-074>077-082>085-091>093-221300-
   South Central Minnesota

CITY           SKY/WX    TMP DP  RH WIND       PRES   REMARKS
MANKATO        SUNNY     77  70  78 E8        29.98S
NEW ULM        CLEAR     75  72  88 E6        29.98S
ST JAMES       CLEAR     72  70  94 CALM      29.99S
FAIRMONT         N/A    N/A N/A N/A MISG        N/A
GLENCOE        SUNNY     71  70  95 SE6       29.97F
FARIBAULT      SUNNY     73  72  94 CALM      30.00S FOG
OWATONNA       MOSUNNY   79  73  83 SE5       30.01R
WASECA         CLOUDY    77  73  88 E9        30.01R
ALBERT LEA     PTSUNNY   75  73  94 S7        30.00R
$$
MNZ078>079-086>088-094>096-221300-
   Southeast Minnesota

CITY           SKY/WX    TMP DP  RH WIND       PRES   REMARKS
ROCHESTER      CLOUDY    75  74  96 S3        30.03R
6HR MIN TEMP:  75; 6HR MAX TEMP:  79;

RED WING       MOSUNNY   72  70  94 CALM      29.99R FOG
DODGE CENTER   FOG       75  75 100 SE5       30.02R VSB<1/4
WINONA         CLOUDY    73  72  94 CALM      30.01R
AUSTIN         CLOUDY    73  72  94 CALM      30.01S
PRESTON        CLOUDY    73  69  88 S5        30.03R
$$
ABBREVIATIONS USED IN REMARKS
   TC - TEMPERATURES IN CELSIUS
  WCI - WIND CHILL INDEX
   HX - HEAT INDEX
  VSB - VISIBILITY
$$




USA.gov is the U.S. government's official web portal to all federal, state and local government web resources and services.